B52 EFHK-EFJY

Flight info

Callsign B52
Flight time 0h 40m
Altitude 8500
Route ROQQA RUOKE
Aircraft HAWK/M-SDGIRY/C

Departure

Time 2026-04-16 10:43
Airport Helsinki Vantaa Airport (EFHK)

Arrival

Time 2026-04-16 11:23
Airport Jyväskylä Airport (EFJY)
Time Latitude Longitude Altitude Speed Heading
2026-04-16 10:32 60.31536 24.93187 164 ft 0 kts 125°
2026-04-16 10:39 60.31518 24.93238 164 ft 8 kts 130°
2026-04-16 10:39 60.31491 24.93224 163 ft 6 kts 236°
2026-04-16 10:40 60.31457 24.93133 163 ft 10 kts 227°
2026-04-16 10:40 60.31397 24.93027 160 ft 8 kts 195°
2026-04-16 10:40 60.31338 24.93081 159 ft 12 kts 138°
2026-04-16 10:40 60.31268 24.93210 158 ft 15 kts 137°
2026-04-16 10:41 60.31217 24.93304 157 ft 8 kts 136°
2026-04-16 10:41 60.31168 24.93394 156 ft 12 kts 137°
2026-04-16 10:41 60.31113 24.93496 155 ft 1 kts 136°
2026-04-16 10:41 60.31105 24.93517 155 ft 2 kts 112°
2026-04-16 10:42 60.31104 24.93548 155 ft 7 kts 82°
2026-04-16 10:42 60.31138 24.93656 154 ft 20 kts 49°
2026-04-16 10:42 60.31436 24.94314 158 ft 112 kts 47°
2026-04-16 10:42 60.32147 24.95878 448 ft 181 kts 47°
2026-04-16 10:43 60.33040 24.97916 899 ft 202 kts 49°
2026-04-16 10:43 60.33855 25.00323 843 ft 212 kts 73°
2026-04-16 10:43 60.33688 25.03295 839 ft 226 kts 118°
2026-04-16 10:43 60.32464 25.05352 843 ft 242 kts 158°
2026-04-16 10:44 60.30761 25.05437 821 ft 250 kts 193°
2026-04-16 10:44 60.29126 25.04296 794 ft 246 kts 200°
2026-04-16 10:44 60.27560 25.03104 782 ft 241 kts 200°
2026-04-16 10:44 60.26011 25.01880 782 ft 237 kts 201°
2026-04-16 10:45 60.24492 25.00681 788 ft 232 kts 200°
2026-04-16 10:45 60.23005 24.99480 787 ft 228 kts 201°
2026-04-16 10:45 60.21849 24.98498 782 ft 225 kts 201°
2026-04-16 10:45 60.20415 24.97272 801 ft 222 kts 201°
2026-04-16 10:46 60.18986 24.96082 789 ft 220 kts 200°
2026-04-16 10:46 60.17549 24.95272 798 ft 218 kts 182°
2026-04-16 10:46 60.16008 24.95409 839 ft 226 kts 171°
2026-04-16 10:46 60.14424 24.95763 1016 ft 228 kts 170°
2026-04-16 10:47 60.12877 24.96076 1413 ft 220 kts 170°
2026-04-16 10:47 60.11339 24.96236 1700 ft 227 kts 183°
2026-04-16 10:47 60.09884 24.94700 1859 ft 253 kts 226°
2026-04-16 10:47 60.09157 24.91474 2325 ft 260 kts 263°
2026-04-16 10:48 60.09394 24.87900 2816 ft 261 kts 287°
2026-04-16 10:48 60.09933 24.84497 3487 ft 252 kts 288°
2026-04-16 10:48 60.10470 24.81193 3928 ft 253 kts 289°
2026-04-16 10:48 60.11036 24.77739 4047 ft 270 kts 289°
2026-04-16 10:49 60.11655 24.74016 4036 ft 288 kts 289°
2026-04-16 10:49 60.12304 24.70123 3999 ft 298 kts 289°
2026-04-16 10:49 60.12955 24.66157 4011 ft 306 kts 289°
2026-04-16 10:49 60.13856 24.62252 4003 ft 312 kts 309°
2026-04-16 10:50 60.15317 24.58988 4005 ft 317 kts 318°
2026-04-16 10:50 60.16998 24.56063 3994 ft 319 kts 323°
2026-04-16 10:50 60.18719 24.53239 3999 ft 319 kts 323°
2026-04-16 10:50 60.20418 24.50468 3990 ft 318 kts 323°
2026-04-16 10:51 60.22140 24.47672 3990 ft 318 kts 324°
2026-04-16 10:51 60.23865 24.44875 3995 ft 318 kts 324°
2026-04-16 10:51 60.25594 24.42073 3996 ft 317 kts 324°
2026-04-16 10:51 60.27311 24.39291 3999 ft 317 kts 324°
2026-04-16 10:52 60.29131 24.36840 3990 ft 311 kts 342°
2026-04-16 10:52 60.31196 24.36389 3999 ft 299 kts 14°
2026-04-16 10:52 60.33055 24.38030 4023 ft 291 kts 36°
2026-04-16 10:52 60.34751 24.40283 4022 ft 292 kts 37°
2026-04-16 10:53 60.36452 24.42582 4007 ft 294 kts 38°
2026-04-16 10:53 60.38149 24.44909 4004 ft 295 kts 38°
2026-04-16 10:53 60.39832 24.47222 3998 ft 296 kts 38°
2026-04-16 10:53 60.41538 24.49579 4007 ft 297 kts 38°
2026-04-16 10:54 60.43244 24.51948 4013 ft 298 kts 38°
2026-04-16 10:54 60.44960 24.54341 4011 ft 300 kts 38°
2026-04-16 10:54 60.46686 24.56749 3997 ft 301 kts 38°
2026-04-16 10:54 60.48415 24.59156 3992 ft 301 kts 38°
2026-04-16 10:55 60.50141 24.61564 4000 ft 300 kts 38°
2026-04-16 10:55 60.51837 24.63936 4003 ft 299 kts 38°
2026-04-16 10:55 60.53554 24.66328 4005 ft 299 kts 38°
2026-04-16 10:55 60.55268 24.68722 3996 ft 298 kts 38°
2026-04-16 10:56 60.56957 24.71085 4001 ft 297 kts 38°
2026-04-16 10:56 60.58655 24.73456 4010 ft 296 kts 38°
2026-04-16 10:56 60.60351 24.75825 4021 ft 296 kts 38°
2026-04-16 10:56 60.62055 24.78206 4045 ft 297 kts 38°
2026-04-16 10:57 60.63765 24.80596 4029 ft 299 kts 38°
2026-04-16 10:57 60.65482 24.83005 4023 ft 300 kts 38°
2026-04-16 10:57 60.67206 24.85435 4020 ft 301 kts 38°
2026-04-16 10:57 60.68936 24.87873 4010 ft 302 kts 38°
2026-04-16 10:58 60.70677 24.90285 4011 ft 302 kts 34°
2026-04-16 10:58 60.72712 24.91468 4014 ft 312 kts
2026-04-16 10:58 60.74891 24.91475 4016 ft 314 kts
2026-04-16 10:58 60.77073 24.91263 4016 ft 313 kts
2026-04-16 10:59 60.79226 24.91084 4014 ft 313 kts
2026-04-16 10:59 60.81396 24.90922 4008 ft 312 kts
2026-04-16 10:59 60.83574 24.90770 4018 ft 311 kts
2026-04-16 10:59 60.85738 24.90616 4030 ft 311 kts
2026-04-16 11:00 60.87901 24.90459 4030 ft 311 kts
2026-04-16 11:00 60.90068 24.90300 4032 ft 312 kts
2026-04-16 11:00 60.92240 24.90145 4027 ft 312 kts
2026-04-16 11:00 60.94383 24.89998 4036 ft 312 kts
2026-04-16 11:01 60.96560 24.89856 4045 ft 312 kts
2026-04-16 11:01 60.98736 24.89716 4038 ft 313 kts
2026-04-16 11:01 61.00914 24.89587 4039 ft 312 kts
2026-04-16 11:01 61.03067 24.90033 4032 ft 309 kts 13°
2026-04-16 11:02 61.05150 24.90746 4029 ft 305 kts 14°
2026-04-16 11:02 61.07220 24.91533 4035 ft 300 kts 15°
2026-04-16 11:02 61.09266 24.92335 4028 ft 296 kts 15°
2026-04-16 11:02 61.11222 24.93111 4025 ft 292 kts 15°
2026-04-16 11:03 61.13209 24.93910 4020 ft 288 kts 15°
2026-04-16 11:03 61.15162 24.94722 4028 ft 284 kts 15°
2026-04-16 11:03 61.18973 24.96319 4044 ft 278 kts 15°
2026-04-16 11:04 61.20862 24.97114 4039 ft 276 kts 15°
2026-04-16 11:04 61.22735 24.97903 4041 ft 273 kts 15°
2026-04-16 11:04 61.24594 24.98687 4047 ft 276 kts 15°
2026-04-16 11:04 61.26497 24.99497 4055 ft 280 kts 15°
2026-04-16 11:05 61.28421 25.00322 4053 ft 283 kts 15°
2026-04-16 11:05 61.30363 25.01160 4052 ft 286 kts 15°
2026-04-16 11:05 61.32298 25.01991 4053 ft 287 kts 15°
2026-04-16 11:05 61.34270 25.02841 4058 ft 290 kts 15°
2026-04-16 11:06 61.36253 25.03702 4061 ft 292 kts 15°
2026-04-16 11:06 61.38257 25.04569 4075 ft 295 kts 15°
2026-04-16 11:06 61.40255 25.05440 4062 ft 298 kts 15°
2026-04-16 11:06 61.42295 25.06340 4048 ft 300 kts 15°
2026-04-16 11:07 61.44339 25.07262 4035 ft 300 kts 15°
2026-04-16 11:07 61.46379 25.08205 4040 ft 301 kts 15°
2026-04-16 11:07 61.48418 25.09157 4043 ft 300 kts 15°
2026-04-16 11:07 61.50461 25.10112 4051 ft 300 kts 16°
2026-04-16 11:08 61.52506 25.11067 4057 ft 301 kts 15°
2026-04-16 11:08 61.54552 25.12032 4061 ft 302 kts 15°
2026-04-16 11:08 61.56581 25.12997 4070 ft 303 kts 16°
2026-04-16 11:08 61.58642 25.13977 4065 ft 304 kts 15°
2026-04-16 11:09 61.60768 25.14391 4055 ft 309 kts
2026-04-16 11:09 61.62928 25.14188 4056 ft 310 kts
2026-04-16 11:09 61.65087 25.13978 4059 ft 310 kts
2026-04-16 11:09 61.67217 25.13777 4052 ft 310 kts
2026-04-16 11:10 61.69374 25.13576 4054 ft 310 kts
2026-04-16 11:10 61.71558 25.13361 4053 ft 310 kts
2026-04-16 11:10 61.73693 25.13154 4056 ft 310 kts
2026-04-16 11:10 61.75853 25.12964 4050 ft 310 kts
2026-04-16 11:11 61.78008 25.12799 4057 ft 310 kts
2026-04-16 11:11 61.80169 25.12640 4063 ft 310 kts
2026-04-16 11:11 61.82331 25.12492 4059 ft 311 kts
2026-04-16 11:11 61.84467 25.12350 4056 ft 311 kts
2026-04-16 11:12 61.86632 25.12207 4056 ft 311 kts
2026-04-16 11:12 61.88794 25.12061 4065 ft 311 kts
2026-04-16 11:12 61.90965 25.11917 4063 ft 310 kts
2026-04-16 11:12 61.93127 25.11781 4066 ft 310 kts
2026-04-16 11:13 61.95281 25.11642 4072 ft 311 kts
2026-04-16 11:13 61.97397 25.11951 4074 ft 306 kts 19°
2026-04-16 11:13 61.99304 25.13904 4071 ft 304 kts 32°
2026-04-16 11:13 62.01052 25.16366 4065 ft 295 kts 36°
2026-04-16 11:14 62.02694 25.18830 4064 ft 281 kts 37°
2026-04-16 11:14 62.04227 25.21191 4071 ft 270 kts 38°
2026-04-16 11:14 62.05719 25.23524 4071 ft 261 kts 38°
2026-04-16 11:14 62.07160 25.25793 4054 ft 254 kts 38°
2026-04-16 11:15 62.08605 25.28041 3635 ft 263 kts 37°
2026-04-16 11:15 62.10112 25.30385 3160 ft 272 kts 37°
2026-04-16 11:15 62.11624 25.32771 2865 ft 265 kts 40°
2026-04-16 11:15 62.12630 25.35943 2538 ft 265 kts 73°
2026-04-16 11:16 62.12583 25.39941 1947 ft 280 kts 104°
2026-04-16 11:16 62.12038 25.43921 1730 ft 276 kts 104°
2026-04-16 11:16 62.11523 25.47786 1564 ft 267 kts 104°
2026-04-16 11:16 62.11023 25.51491 1574 ft 252 kts 103°
2026-04-16 11:17 62.10602 25.55036 1571 ft 239 kts 92°
2026-04-16 11:17 62.11026 25.58276 1547 ft 225 kts 51°
2026-04-16 11:17 62.12303 25.59897 1510 ft 217 kts
2026-04-16 11:17 62.13781 25.59964 1497 ft 208 kts
2026-04-16 11:18 62.15245 25.60117 1514 ft 220 kts
2026-04-16 11:18 62.16848 25.60377 1520 ft 241 kts
2026-04-16 11:18 62.18584 25.60560 1509 ft 254 kts
2026-04-16 11:18 62.20366 25.60749 1479 ft 259 kts
2026-04-16 11:19 62.22158 25.61138 1430 ft 257 kts 19°
2026-04-16 11:19 62.23623 25.63119 1476 ft 252 kts 41°
2026-04-16 11:19 62.24886 25.65708 1491 ft 248 kts 45°
2026-04-16 11:19 62.26086 25.68276 1480 ft 239 kts 45°
2026-04-16 11:20 62.27257 25.70750 1496 ft 233 kts 44°
2026-04-16 11:20 62.28399 25.73152 1485 ft 226 kts 45°
2026-04-16 11:20 62.29508 25.75509 1498 ft 222 kts 45°
2026-04-16 11:20 62.30598 25.77815 1501 ft 219 kts 45°
2026-04-16 11:21 62.31767 25.79788 1496 ft 216 kts 26°
2026-04-16 11:21 62.33184 25.80435 1492 ft 206 kts 357°
2026-04-16 11:21 62.34490 25.79444 1489 ft 200 kts 320°
2026-04-16 11:21 62.35464 25.77522 1576 ft 172 kts 324°
2026-04-16 11:22 62.36308 25.75966 1528 ft 152 kts 318°
2026-04-16 11:22 62.37050 25.74275 1213 ft 159 kts 318°
2026-04-16 11:22 62.37826 25.72565 852 ft 159 kts 317°
2026-04-16 11:22 62.38596 25.70841 651 ft 161 kts 316°
2026-04-16 11:23 62.39357 25.69142 460 ft 153 kts 314°
2026-04-16 11:23 62.39993 25.67720 462 ft 88 kts 313°
2026-04-16 11:23 62.40326 25.66974 473 ft 57 kts 315°
2026-04-16 11:23 62.40501 25.66585 476 ft 20 kts 313°
2026-04-16 11:24 62.40516 25.66415 478 ft 9 kts 224°
2026-04-16 11:24 62.40477 25.66334 476 ft 8 kts 223°
2026-04-16 11:24 62.40459 25.66297 479 ft 0 kts 224°
2026-04-16 11:25 62.40442 25.66260 478 ft 8 kts 224°
2026-04-16 11:25 62.40381 25.66131 479 ft 16 kts 225°
2026-04-16 11:25 62.40298 25.65957 478 ft 17 kts 224°
2026-04-16 11:25 62.40215 25.65787 475 ft 15 kts 223°
2026-04-16 11:26 62.40157 25.65680 479 ft 5 kts 185°
2026-04-16 11:26 62.40140 25.65723 479 ft 4 kts 68°
2026-04-16 11:26 62.40145 25.65739 479 ft 0 kts 54°